Weather History for Youngstown, OH

Change the Weather History Date:

Monday, April 30, 2012

  Actual Average Record
Temperature  
Mean Temperature 56 °F 53 °F  
Max Temperature 79 °F 65 °F 85 °F (1970)
Min Temperature 33 °F 42 °F 27 °F (1958)
Degree Days  
Heating Degree Days 9 12  
Month to date heating degree days 527 502  
Since 1 July heating degree days 4945 6027  
Cooling Degree Days 0 0  
Month to date cooling degree days 5 8  
Year to date cooling degree days 12 9  
Growing Degree Days 6 (Base 50)    
Moisture  
Dew Point 38 °F    
Average Humidity 54    
Maximum Humidity 78    
Minimum Humidity 30    
Precipitation  
Precipitation 0.19 in 0.11 in 1.29 in (1983)
Month to date precipitation 1.60 3.36  
Year to date precipitation 11.69 11.00  
Snow  
Snow 0.00 in 0.00 in - ()
Month to date snowfall 1.2 3.0  
Since 1 July snowfall 56.5 62.7  
Snow Depth 0.00 in    
Sea Level Pressure  
Sea Level Pressure 30.06 in    
Wind  
Wind Speed 8 mph (SE)    
Max Wind Speed 17 mph    
Max Gust Speed 23 mph    
Visibility 10 miles    
Events Rain    
T = Trace of Precipitation, MM = Missing Value Source: NWS Daily Summary

Daily Weather History Graph

Daily Weather History Graph

Search for Another Location

Airport:

Trip Planner

Search our weather history database for the weather conditions in past years. The results will help you decide how hot, cold, wet, or windy it might be!

Date:

Astronomy

Apr. 30, 2012 Rise Set
Actual Time 6:20 AM EDT 8:19 PM EDT
Civil Twilight 5:50 AM EDT 8:49 PM EDT
Nautical Twilight 5:14 AM EDT 9:26 PM EDT
Astronomical Twilight 4:34 AM EDT 10:06 PM EDT
Moon 2:11 PM EDT (4/30) 2:48 AM EDT (4/30)
Length of Visible Light 14h 58m
Length of Day
13h 58m
Waxing Gibbous, 63% of the Moon is Illuminated
Apr 30
Waxing Gibbous
May 5
Full
May 12
Last Quarter
May 20
New
May 28
First Quarter

Hourly Weather History & Observations

Time (EDT) Temp. Windchill Dew Point Humidity Pressure Visibility Wind Dir Wind Speed Gust Speed Precip Events Conditions
12:51 AM 39.0 °F - 25.0 °F 57% 30.26 in 10.0 mi Calm Calm - N/A   Partly Cloudy
1:51 AM 36.0 °F 32.1 °F 25.0 °F 64% 30.25 in 10.0 mi East 4.6 mph - N/A   Partly Cloudy
2:51 AM 37.9 °F 32.1 °F 23.0 °F 55% 30.22 in 10.0 mi East 8.1 mph - N/A   Partly Cloudy
3:51 AM 41.0 °F 35.8 °F 23.0 °F 49% 30.19 in 10.0 mi East 8.1 mph - N/A   Mostly Cloudy
4:51 AM 45.0 °F 39.7 °F 21.0 °F 39% 30.19 in 10.0 mi ESE 10.4 mph - N/A   Mostly Cloudy
5:51 AM 46.0 °F 41.0 °F 19.9 °F 35% 30.18 in 10.0 mi ESE 10.4 mph - N/A   Mostly Cloudy
6:51 AM 46.9 °F - 19.0 °F 33% 30.18 in 10.0 mi ESE 10.4 mph 19.6 mph N/A   Mostly Cloudy
7:51 AM 48.9 °F - 21.0 °F 33% 30.18 in 10.0 mi ESE 8.1 mph - N/A   Mostly Cloudy
8:51 AM 52.0 °F - 23.0 °F 32% 30.17 in 10.0 mi ESE 12.7 mph - N/A   Overcast
9:51 AM 55.0 °F - 24.1 °F 30% 30.14 in 10.0 mi SE 12.7 mph - N/A   Overcast
10:51 AM 55.0 °F - 28.9 °F 37% 30.14 in 10.0 mi SSE 6.9 mph - 0.00 in Rain Light Rain
11:51 AM 54.0 °F - 39.9 °F 59% 30.11 in 10.0 mi ESE 8.1 mph - 0.01 in   Overcast
12:51 PM 64.0 °F - 39.9 °F 41% 30.06 in 10.0 mi SE 10.4 mph - N/A   Mostly Cloudy
1:51 PM 66.9 °F - 44.1 °F 44% 30.02 in 10.0 mi SSE 9.2 mph - N/A   Mostly Cloudy
2:51 PM 71.1 °F - 48.0 °F 44% 30.00 in 10.0 mi SSE 8.1 mph - N/A   Mostly Cloudy
3:51 PM 73.9 °F - 50.0 °F 43% 29.98 in 10.0 mi SSW 6.9 mph - N/A   Mostly Cloudy
4:51 PM 77.0 °F - 53.1 °F 43% 29.94 in 10.0 mi South 6.9 mph - N/A   Mostly Cloudy
5:51 PM 78.1 °F - 55.0 °F 45% 29.91 in 10.0 mi South 5.8 mph - N/A   Overcast
6:51 PM 78.1 °F - 54.0 °F 43% 29.89 in 10.0 mi SSW 10.4 mph 19.6 mph N/A   Overcast
7:51 PM 75.9 °F - 54.0 °F 46% 29.88 in 10.0 mi SSW 6.9 mph - N/A   Overcast
8:51 PM 73.9 °F - 52.0 °F 46% 29.88 in 10.0 mi SW 6.9 mph - N/A   Mostly Cloudy
9:51 PM 71.1 °F - 53.1 °F 53% 29.88 in 10.0 mi NNW 10.4 mph - N/A   Overcast
10:51 PM 64.9 °F - 57.0 °F 75% 29.91 in 10.0 mi NW 13.8 mph - N/A   Overcast
11:51 PM 59.0 °F - 57.0 °F 93% 29.96 in 4.0 mi West 6.9 mph - 0.09 in Rain Light Rain